Погода в Климовичах

Беларусь     53°36′34″N   31°57′44″E
темп.,
°C
ветер,
м/с
пор.,
м/с
влажн.,
%
обл.,
%
осадки,
мм/ч
давл.,
гПа
погр.,
м
19 апреля, пн
пн1900:00+6св479088 0.0 1020342
03:00+3св37945 0.0 1020158
06:00+3ссв36945 0.0 1020126
09:00+8св597740 0.0 1019659
12:00+10всв577293 0.1 10191130
15:00+11всв676895 0.8 10191271
18:00+8св6981100 0.1 1019693
21:00+7св498799 0.2 1019834
20 апреля, вт
вт2000:00+6всв4887100 0.3 10181111
03:00+6всв5788100 0.4 1016972
06:00+5св4895100 0.1 1015474
09:00+5св5793100 0.2 1015542
12:00+4св4795100 0.0 1014396
15:00+7св5682100 0.1 1012651
18:00+7ссв4789100 0.0 1011645
21:00+6ссв3691100 0.1 1010472
21 апреля, ср
ср2100:00+5ссв3692100 0.0 1008457
03:00+4с3690100 0.0 1007563
06:00+4сз3788100 0.1 1007662
09:00+4зсз5695100 0.1 1007691
12:00+8з6762100 0.1 10081458
15:00+8юз576561 0.1 10081201
18:00+8зюз587396 0.4 1009947
21:00+6ююз34935 1.1 101083
22 апреля, чт
чт2200:00+5ююз3492100 0.1 101160
03:00+5ююз369596 0.1 1011127
06:00+4ююз379718 0.0 1012142
09:00+9ююз5781100 0.0 1013370
12:00+13ююз68659 0.6 10131237
15:00+14юз686099 2.3 10121551
18:00+14юз586128 0.8 1013675
21:00+9ю478114 0.8 101497
23 апреля, пт
пт2300:00+8ю368914 0.0 1014102
03:00+7ю4129458 0.0 1013278
06:00+7ю5149281 0.0 1012388
09:00+11ююз6107976 0.1 1011699
12:00+9з7984100 0.4 1011725
15:00+4з5995100 0.9 1013557
18:00+6юз4881100 1.2 1013750
21:00+5ю4790100 1.3 1013153